Location: Jablonec nad Nisou
(50.7170°N, 15.1830°E)
Time: 00:32:16
(UTC+02:00)

ISS - Visible Passes

Search period start: 06 May 2021 00:00
Search period end: 16 May 2021 00:00
Orbit: 418 x 421 km, 51.6° (Epoch: 05 May)

Date Brightness Start Highest point End Pass type
(mag) Time Alt. Az. Time Alt. Az. Time Alt. Az.
06 May -3.6 02:48:20 52° SSE 02:48:20 52° SSE 02:51:37 10° E visible
06 May -3.6 04:21:43 10° W 04:25:06 75° N 04:28:30 10° E visible
07 May -2.1 02:02:24 25° E 02:02:24 25° E 02:04:08 10° E visible
07 May -3.7 03:35:20 19° W 03:37:39 82° N 03:41:03 10° E visible
08 May -0.9 01:16:27 11° E 01:16:27 11° E 01:16:34 10° E visible
08 May -3.9 02:49:24 49° WSW 02:50:12 86° SSE 02:53:36 10° ENE visible
08 May -3.6 04:23:43 10° W 04:27:06 76° N 04:30:30 10° E visible
09 May -3.3 02:03:25 52° E 02:03:25 52° E 02:06:08 10° ENE visible
09 May -3.6 03:36:21 11° W 03:39:38 73° N 03:43:01 10° E visible
10 May -1.7 01:17:25 21° E 01:17:25 21° E 01:18:41 10° E visible
10 May -3.6 02:50:21 25° W 02:52:10 75° N 02:55:33 10° E visible
10 May -3.8 04:25:40 10° WNW 04:29:04 81° SSW 04:32:27 10° ESE visible
11 May -3.8 02:04:19 67° WNW 02:04:42 82° N 02:08:05 10° E visible
11 May -3.7 03:38:13 10° WNW 03:41:37 85° N 03:45:00 10° E visible
12 May -3.0 01:18:14 43° E 01:18:14 43° E 01:20:38 10° ENE visible
12 May -3.6 02:51:09 13° W 02:54:09 77° N 02:57:32 10° E visible
12 May -3.5 04:27:38 10° W 04:30:54 47° SSW 04:34:10 10° SE visible
13 May -1.7 00:32:04 19° E 00:32:04 19° E 00:33:11 10° ENE visible
13 May -3.6 02:04:58 27° W 02:06:40 73° N 02:10:03 10° E visible
13 May -3.8 03:40:09 10° WNW 03:43:31 64° SSW 03:46:52 10° ESE visible
13 May -1.0 23:45:40 10° E 23:45:40 10° E 23:45:42 10° E visible
14 May -3.6 01:18:33 54° WNW 01:19:11 75° N 01:22:35 10° E visible
14 May -3.9 02:52:42 10° WNW 02:56:05 81° SSW 02:59:28 10° ESE visible
14 May -2.6 04:29:47 10° W 04:32:35 24° SW 04:35:23 10° SSE visible
14 May -3.3 22:51:52 10° SW 22:55:01 38° SSE 22:58:12 10° E visible
15 May -3.8 00:28:19 10° W 00:31:42 81° N 00:35:06 10° E visible
15 May -3.8 02:05:14 10° WNW 02:08:37 85° N 02:12:01 10° E visible
15 May -3.1 03:42:10 10° W 03:45:16 34° SSW 03:48:22 10° SE visible
15 May -2.8 22:04:46 10° SSW 22:07:41 28° SSE 22:10:37 10° E visible
15 May -3.9 23:40:52 10° WSW 23:44:14 87° SSE 23:47:37 10° ENE visible
